Retour au catalogue

STARLINK-1554

ActifCommunicationsVLEO
NORAD 46055·PAYLOAD·🇺🇸 United States

Lancé Aug 7, 2020 depuis Cape Canaveral Space Force Station

Loading…

Prochains Passages (prochaines 24 heures)

TLE

FraisSource: CelesTrak SupGP

Époque: Sep 15, 2026, 01:04 UTC

1 46055C 20055AE  26258.04493056  .00045912  00000+0  14763-2 0  2587
2 46055  53.1595 312.8227 0001256  84.3946 116.8176 15.31682133    17

Suivez STARLINK-1554 en temps réel avec AllMySat

Download on the App Store